TimeCST,TemperatureF,Dew PointF,Humidity,Sea Level PressureIn,VisibilityMPH,Wind Direction,Wind SpeedMPH,Gust SpeedMPH,PrecipitationIn,Events,Conditions,WindDirDegrees,DateUTC
12:53 AM,51.8,46.4,82,30.26,10.0,NNE,4.6,-,N/A,,Clear,30,2012-11-18 06:53:00
1:53 AM,53.6,46.4,77,30.25,10.0,NNE,4.6,-,N/A,,Clear,20,2012-11-18 07:53:00
2:53 AM,52.0,46.0,80,30.25,10.0,North,4.6,-,N/A,,Clear,10,2012-11-18 08:53:00
3:53 AM,52.0,45.0,77,30.22,10.0,NNE,5.8,-,N/A,,Clear,30,2012-11-18 09:53:00
4:53 AM,51.1,44.1,77,30.22,10.0,NNE,4.6,-,N/A,,Clear,30,2012-11-18 10:53:00
5:53 AM,51.1,46.0,83,30.22,10.0,NNE,4.6,-,N/A,,Clear,30,2012-11-18 11:53:00
6:53 AM,50.0,46.0,86,30.22,10.0,NE,4.6,-,N/A,,Clear,40,2012-11-18 12:53:00
7:53 AM,55.0,48.9,80,30.23,10.0,ENE,5.8,-,N/A,,Clear,60,2012-11-18 13:53:00
8:53 AM,63.0,52.0,67,30.25,10.0,East,5.8,-,N/A,,Clear,80,2012-11-18 14:53:00
9:53 AM,71.1,54.0,55,30.26,10.0,ESE,4.6,-,N/A,,Clear,120,2012-11-18 15:53:00
10:53 AM,73.9,54.0,50,30.25,10.0,SE,9.2,16.1,N/A,,Partly Cloudy,130,2012-11-18 16:53:00
11:53 AM,77.0,52.0,42,30.22,10.0,SE,12.7,19.6,N/A,,Clear,140,2012-11-18 17:53:00
12:53 PM,79.0,52.0,39,30.18,10.0,SE,12.7,23.0,N/A,,Clear,140,2012-11-18 18:53:00
1:53 PM,79.0,52.0,39,30.16,10.0,East,8.1,-,N/A,,Partly Cloudy,100,2012-11-18 19:53:00
2:53 PM,78.1,52.0,40,30.15,10.0,SE,12.7,-,N/A,,Scattered Clouds,140,2012-11-18 20:53:00
3:53 PM,75.9,53.1,45,30.16,10.0,SE,11.5,-,N/A,,Overcast,130,2012-11-18 21:53:00
4:53 PM,73.9,52.0,46,30.17,10.0,SE,11.5,-,N/A,,Overcast,140,2012-11-18 22:53:00
5:53 PM,71.1,53.1,53,30.18,10.0,SE,11.5,-,N/A,,Clear,130,2012-11-18 23:53:00
6:53 PM,66.0,53.1,63,30.21,10.0,SSE,3.5,-,N/A,,Clear,150,2012-11-19 00:53:00
7:53 PM,64.0,52.0,65,30.20,10.0,ESE,6.9,-,N/A,,Clear,120,2012-11-19 01:53:00
8:53 PM,63.0,52.0,67,30.22,10.0,Calm,Calm,-,N/A,,Clear,0,2012-11-19 02:53:00
9:53 PM,62.1,52.0,70,30.22,10.0,Calm,Calm,-,N/A,,Clear,0,2012-11-19 03:53:00
10:53 PM,59.0,50.0,72,30.22,10.0,Calm,Calm,-,N/A,,Clear,0,2012-11-19 04:53:00
11:53 PM,59.0,50.0,72,30.21,10.0,ENE,3.5,-,N/A,,Clear,60,2012-11-19 05:53:00